Time,TemperatureF,DewpointF,PressureIn,WindDirection,WindDirectionDegrees,WindSpeedMPH,WindSpeedGustMPH,Humidity,HourlyPrecipIn,Conditions,Clouds,dailyrainin,SolarRadiationWatts/m^2,SoftwareType,DateUTC
2013-03-28 08:52:00,55.0,51.0,-100.00,WSW,242,3.0,7.0,86,-99.99,,,0.00,176.000000,,2013-03-28 18:52:00,
2013-03-28 09:22:00,62.0,50.0,-100.00,West,278,3.0,7.0,65,0.00,,,0.00,474.000000,,2013-03-28 19:22:00,
2013-03-28 09:32:00,62.0,50.0,-100.00,West,278,3.0,7.0,65,0.00,,,0.00,474.000000,,2013-03-28 19:32:00,
2013-03-28 09:42:00,62.0,50.0,-100.00,West,278,3.0,7.0,65,0.00,,,0.00,474.000000,,2013-03-28 19:42:00,
2013-03-28 09:52:00,62.0,50.0,-100.00,West,278,3.0,7.0,65,0.00,,,0.00,474.000000,,2013-03-28 19:52:00,
2013-03-28 10:22:00,62.0,47.0,-100.00,NW,320,6.0,12.0,59,0.00,,,0.00,681.000000,,2013-03-28 20:22:00,
2013-03-28 10:32:00,62.0,47.0,-100.00,NW,320,6.0,12.0,59,0.00,,,0.00,681.000000,,2013-03-28 20:32:00,
2013-03-28 10:42:00,62.0,47.0,-100.00,NW,320,6.0,12.0,59,0.00,,,0.00,681.000000,,2013-03-28 20:42:00,
2013-03-28 10:52:00,62.0,47.0,-100.00,NW,320,6.0,12.0,59,0.00,,,0.00,681.000000,,2013-03-28 20:52:00,
2013-03-28 11:22:00,64.0,49.0,-100.00,NNW,334,6.0,16.0,59,0.00,,,0.00,807.000000,,2013-03-28 21:22:00,
2013-03-28 11:32:00,64.0,49.0,-100.00,NNW,334,6.0,16.0,59,0.00,,,0.00,807.000000,,2013-03-28 21:32:00,
2013-03-28 11:42:00,64.0,49.0,-100.00,NNW,334,6.0,16.0,59,0.00,,,0.00,807.000000,,2013-03-28 21:42:00,
2013-03-28 11:52:00,64.0,49.0,-100.00,NNW,334,6.0,16.0,59,0.00,,,0.00,807.000000,,2013-03-28 21:52:00,
2013-03-28 12:22:00,69.0,46.0,-100.00,NW,324,9.0,19.0,44,0.00,,,0.00,910.000000,,2013-03-28 22:22:00,
2013-03-28 12:32:00,69.0,46.0,-100.00,NW,324,9.0,19.0,44,0.00,,,0.00,910.000000,,2013-03-28 22:32:00,
2013-03-28 12:42:00,69.0,46.0,-100.00,NW,324,9.0,19.0,44,0.00,,,0.00,910.000000,,2013-03-28 22:42:00,
2013-03-28 12:52:00,69.0,46.0,-100.00,NW,324,9.0,19.0,44,0.00,,,0.00,910.000000,,2013-03-28 22:52:00,
2013-03-28 13:22:00,66.0,45.0,-100.00,NNW,336,9.0,20.0,47,0.00,,,0.00,765.000000,,2013-03-28 23:22:00,
2013-03-28 13:32:00,66.0,45.0,-100.00,NNW,336,9.0,20.0,47,0.00,,,0.00,765.000000,,2013-03-28 23:32:00,
2013-03-28 13:42:00,66.0,45.0,-100.00,NNW,336,9.0,20.0,47,0.00,,,0.00,765.000000,,2013-03-28 23:42:00,
2013-03-28 13:52:00,66.0,45.0,-100.00,NNW,336,9.0,20.0,47,0.00,,,0.00,765.000000,,2013-03-28 23:52:00,
2013-03-28 14:22:00,67.0,48.0,-100.00,NNW,341,10.0,20.0,50,0.00,,,0.00,775.000000,,2013-03-29 00:22:00,
2013-03-28 14:32:00,67.0,48.0,-100.00,NNW,341,10.0,20.0,50,0.00,,,0.00,775.000000,,2013-03-29 00:32:00,
2013-03-28 14:42:00,67.0,48.0,-100.00,NNW,341,10.0,20.0,50,0.00,,,0.00,775.000000,,2013-03-29 00:42:00,
2013-03-28 14:52:00,67.0,48.0,-100.00,NNW,341,10.0,20.0,50,0.00,,,0.00,775.000000,,2013-03-29 00:52:00,
2013-03-28 15:22:00,65.0,49.0,-100.00,NW,324,10.0,23.0,56,0.00,,,-99.99,548.000000,,2013-03-29 01:22:00,
2013-03-28 15:32:00,65.0,49.0,-100.00,NW,324,10.0,23.0,56,0.00,,,-99.99,548.000000,,2013-03-29 01:32:00,
2013-03-28 15:42:00,65.0,49.0,-100.00,NW,324,10.0,23.0,56,0.00,,,-99.99,548.000000,,2013-03-29 01:42:00,
2013-03-28 15:52:00,65.0,49.0,-100.00,NW,324,10.0,23.0,56,0.00,,,-99.99,548.000000,,2013-03-29 01:52:00,
2013-03-28 16:22:00,67.0,47.0,-100.00,NNW,340,8.0,21.0,49,0.00,,,-99.99,661.000000,,2013-03-29 02:22:00,
2013-03-28 16:32:00,67.0,47.0,-100.00,NNW,340,8.0,21.0,49,0.00,,,-99.99,661.000000,,2013-03-29 02:32:00,
2013-03-28 16:42:00,67.0,47.0,-100.00,NNW,340,8.0,21.0,49,0.00,,,-99.99,661.000000,,2013-03-29 02:42:00,
2013-03-28 16:52:00,67.0,47.0,-100.00,NNW,340,8.0,21.0,49,0.00,,,-99.99,661.000000,,2013-03-29 02:52:00,
2013-03-28 17:21:00,64.0,45.0,-100.00,North,350,8.0,21.0,50,0.00,,,-99.99,418.000000,,2013-03-29 03:21:00,
2013-03-28 17:32:00,64.0,45.0,-100.00,North,350,8.0,21.0,50,0.00,,,-99.99,418.000000,,2013-03-29 03:32:00,
2013-03-28 17:42:00,64.0,45.0,-100.00,North,350,8.0,21.0,50,0.00,,,-99.99,418.000000,,2013-03-29 03:42:00,
2013-03-28 17:52:00,64.0,45.0,-100.00,North,350,8.0,21.0,50,0.00,,,-99.99,418.000000,,2013-03-29 03:52:00,
2013-03-28 18:22:00,59.0,44.0,-100.00,NNW,334,8.0,18.0,57,0.00,,,-99.99,164.000000,,2013-03-29 04:22:00,
2013-03-28 18:33:00,59.0,44.0,-100.00,NNW,334,8.0,18.0,57,0.00,,,-99.99,164.000000,,2013-03-29 04:33:00,
2013-03-28 18:42:00,59.0,44.0,-100.00,NNW,334,8.0,18.0,57,0.00,,,-99.99,164.000000,,2013-03-29 04:42:00,
2013-03-28 18:52:00,59.0,44.0,-100.00,NNW,334,8.0,18.0,57,0.00,,,-99.99,164.000000,,2013-03-29 04:52:00,
2013-03-28 19:23:00,55.0,48.0,-100.00,North,349,2.0,14.0,77,0.00,,,-99.99,24.000000,,2013-03-29 05:23:00,
2013-03-28 19:32:00,55.0,48.0,-100.00,North,349,2.0,14.0,77,0.00,,,-99.99,24.000000,,2013-03-29 05:32:00,
2013-03-28 19:43:00,55.0,48.0,-100.00,North,349,2.0,14.0,77,0.00,,,-99.99,24.000000,,2013-03-29 05:43:00,
2013-03-28 19:52:00,55.0,48.0,-100.00,North,349,2.0,14.0,77,0.00,,,-99.99,24.000000,,2013-03-29 05:52:00,
2013-03-28 20:22:00,53.0,50.0,-100.00,WNW,302,3.0,8.0,90,0.00,,,-99.99,0.000000,,2013-03-29 06:22:00,
2013-03-28 20:32:00,53.0,50.0,-100.00,WNW,302,3.0,8.0,90,0.00,,,-99.99,0.000000,,2013-03-29 06:32:00,
2013-03-28 20:42:00,53.0,50.0,-100.00,WNW,302,3.0,8.0,90,0.00,,,-99.99,0.000000,,2013-03-29 06:42:00,
2013-03-28 20:52:00,53.0,50.0,-100.00,WNW,302,3.0,8.0,90,0.00,,,-99.99,0.000000,,2013-03-29 06:52:00,
2013-03-28 21:22:00,46.0,43.0,-100.00,South,174,2.0,6.0,90,0.00,,,-99.99,0.000000,,2013-03-29 07:22:00,
2013-03-28 21:32:00,46.0,43.0,-100.00,South,174,2.0,6.0,90,0.00,,,-99.99,0.000000,,2013-03-29 07:32:00,
2013-03-28 21:42:00,46.0,43.0,-100.00,South,174,2.0,6.0,90,0.00,,,-99.99,0.000000,,2013-03-29 07:42:00,
2013-03-28 21:52:00,46.0,43.0,-100.00,South,174,2.0,6.0,90,0.00,,,-99.99,0.000000,,2013-03-29 07:52:00,
2013-03-28 22:22:00,52.0,43.0,-100.00,NE,48,4.0,14.0,71,0.00,,,-99.99,0.000000,,2013-03-29 08:22:00,
2013-03-28 22:32:00,52.0,43.0,-100.00,NE,48,4.0,14.0,71,0.00,,,-99.99,0.000000,,2013-03-29 08:32:00,
2013-03-28 22:42:00,52.0,43.0,-100.00,NE,48,4.0,14.0,71,0.00,,,-99.99,0.000000,,2013-03-29 08:42:00,
2013-03-28 22:52:00,52.0,43.0,-100.00,NE,48,4.0,14.0,71,0.00,,,-99.99,0.000000,,2013-03-29 08:52:00,
2013-03-28 23:22:00,49.0,40.0,-100.00,SE,133,2.0,14.0,71,0.00,,,-99.99,0.000000,,2013-03-29 09:22:00,
2013-03-28 23:32:00,49.0,40.0,-100.00,SE,133,2.0,14.0,71,0.00,,,-99.99,0.000000,,2013-03-29 09:32:00,
2013-03-28 23:42:00,49.0,40.0,-100.00,SE,133,2.0,14.0,71,0.00,,,-99.99,0.000000,,2013-03-29 09:42:00,
2013-03-28 23:52:00,49.0,40.0,-100.00,SE,133,2.0,14.0,71,0.00,,,-99.99,0.000000,,2013-03-29 09:52:00,